Location: Berg
(47.2344°N, 9.5296°E)
Time: 10:52:18
(UTC+00:00)

BEESAT 3 - Visible Passes

Search period start: 06 December 2021 00:00
Search period end: 16 December 2021 00:00
Orbit: 477 x 511 km, 64.9° (Epoch: 05 December)

Date Brightness Start Highest point End Pass type
(mag) Time Alt. Az. Time Alt. Az. Time Alt. Az.
06 Dec ? 17:46:34 10° S 17:48:21 24° S 17:48:21 24° S visible
07 Dec ? 17:24:05 10° S 17:27:02 32° SE 17:27:02 32° SE visible
07 Dec ? 19:01:19 10° WSW 19:01:37 12° WSW 19:01:37 12° WSW visible
08 Dec ? 17:01:37 10° S 17:04:54 29° ESE 17:05:37 27° E visible
08 Dec ? 18:38:34 10° WSW 18:40:11 21° W 18:40:11 21° W visible
09 Dec ? 16:39:09 10° S 16:42:18 25° ESE 16:44:07 18° ENE visible
09 Dec ? 18:15:49 10° WSW 18:18:40 33° WNW 18:18:40 33° WNW visible
10 Dec ? 16:16:42 10° SSE 16:19:42 22° ESE 16:22:31 11° ENE visible
10 Dec ? 17:53:03 10° WSW 17:56:40 40° NW 17:57:04 39° NNW visible
11 Dec ? 17:30:19 10° WSW 17:33:59 45° NW 17:35:23 30° N visible
12 Dec ? 17:07:34 10° SW 17:11:17 51° NW 17:13:38 21° NNE visible
12 Dec ? 18:47:56 10° NW 18:48:11 11° NW 18:48:11 11° NW visible
13 Dec ? 16:44:51 10° SW 16:48:36 59° NW 16:51:49 14° NNE visible
13 Dec ? 18:24:52 10° NW 18:26:22 12° NNW 18:26:22 12° NNW visible
14 Dec ? 16:22:08 10° SW 16:25:53 67° NW 16:29:44 10° NNE visible
14 Dec ? 18:01:51 10° WNW 18:03:48 13° NNW 18:04:29 13° NNW visible
15 Dec ? 17:38:51 10° WNW 17:41:02 14° NNW 17:42:34 12° N visible
